Regional Weather Roundup
Issued by NWS

Home | Current Version | Previous Version | Graphics & Text | Print | Product List | Glossary On
Versions: 1 2 3 4 5 6 7 8 9 10 11 12 13 14 15 16 17 18 19 20 21 22 23 24 25 26 27 28 29 30 31 32 33 34 35 36 37 38 39 40 41 42 43 44 45 46 47 48 49 50
000
ASUS43 KMKX 201400
RWRWI

WISCONSIN REGIONAL WEATHER ROUNDUP
NATIONAL WEATHER SERVICE MILWAUKEE/SULLIVAN WI
900 AM CDT MON OCT 20 2014

NOTE: "FAIR" INDICATES FEW OR NO CLOUDS BELOW 12,000 FEET WITH NO
SIGNIFICANT WEATHER AND/OR OBSTRUCTIONS TO VISIBILITY.

WIZ001-002-006>008-014>016-023>028-201500-
NORTHWEST WISCONSIN

CITY           SKY/WX    TMP DP  RH WIND       PRES   REMARKS
SUPERIOR ARPT  PTSUNNY   43  41  93 NW5       29.96R
ASHLAND        CLOUDY    49  41  74 NW6       29.93R
HAYWARD        CLOUDY    44  42  93 CALM      29.94R
SIREN          SUNNY     38  38  98 NW3       29.96R
CUMBERLAND     SUNNY     45  41  87 NW6       29.95R
RICE LAKE      SUNNY     43  40  91 W5        29.95R
CHETEK         SUNNY     44  41  89 NW3       29.95R
LADYSMITH      SUNNY     45  42  90 NW8       29.93R
EAU CLAIRE     NOT AVBL
MENOMONIE      SUNNY     47  42  82 W6        29.95R
NEW RICHMOND   SUNNY     42  42 100 NW3       29.97R
OSCEOLA        SUNNY     38  38 100 CALM      30.00R
$$

WIZ003>005-009-010-017-018-201500-
NORTH CENTRAL WISCONSIN

CITY           SKY/WX    TMP DP  RH WIND       PRES   REMARKS
MANITOWISH WTR CLOUDY    45  43  95 N7        29.88R
ARBOR VITAE    CLOUDY    46  43  91 NW8       29.87R
WOODRUFF       CLOUDY    46  43  91 NW8       29.87R
RHINELANDER    CLOUDY    44  42  93 VRB3      29.88R
EAGLE RIVER    DRIZZLE   43  43 100 CALM      29.86R
LAND O LAKES   DRIZZLE   44  43  97 NW3       29.86S
PHILLIPS       PTSUNNY   42  40  94 CALM      29.89R
TOMAHAWK       CLOUDY    43  41  93 W3        29.89R
MEDFORD        CLOUDY    42  40  94 NW5       29.90R
MERRILL        CLOUDY    46  43  90 NW3       29.87R
$$

WIZ029-030-035-036-043>047-201500-
CENTRAL WISCONSIN

CITY           SKY/WX    TMP DP  RH WIND       PRES   REMARKS
WAUSAU         CLOUDY    46  42  86 NW7       29.87R
MOSINEE        CLOUDY    46  45  93 NW9       29.89R
MARSHFIELD     SUNNY     46  42  86 NW8       29.90R
STEVENS POINT  PTSUNNY   43  40  89 CALM      29.88S
WAUPACA        CLOUDY    49  45  84 NW8       29.86R
WAUTOMA        NOT AVBL
WISC RAPIDS    SUNNY     49  42  77 NW9       29.91R
CAMP DOUGLAS   SUNNY     50  48  93 NW8       29.91R
$$

WIZ011>013-019>022-031-037>040-048>050-201500-
NORTHEAST WISCONSIN

CITY           SKY/WX    TMP DP  RH WIND       PRES   REMARKS
ANTIGO         CLOUDY    44  42  96 NW7       29.86R
SHAWANO        CLOUDY    47  45  91 CALM      29.85R
OCONTO         CLOUDY    47  45  93 CALM      29.83R
STURGEON BAY   CLOUDY    48  43  81 N8        29.84R
GREEN BAY      CLOUDY    50  44  80 NW9       29.84R
MANITOWOC      NOT AVBL
APPLETON       PTSUNNY   46  45  93 NW13      29.85R
CLINTONVILLE   CLOUDY    46  43  87 W3        29.85R
OSHKOSH        CLOUDY    49  44  83 NW9       29.85R
$$

WIZ032>034-041-042-053>061-201500-
SOUTHWEST WISCONSIN

CITY           SKY/WX    TMP DP  RH WIND       PRES   REMARKS
LA CROSSE      SUNNY     50  45  83 CALM      29.94R
SPARTA         SUNNY     49  42  75 W5        29.93R
VIROQUA        SUNNY     48  42  79 NW6       29.93R
BOSCOBEL       SUNNY     52  44  74 W5        29.94R
PRAIRIE DU CHI SUNNY     49  42  78 CALM      29.94R
PLATTEVILLE    SUNNY     50  44  80 CALM      29.92R
$$

WIZ056-057-062-063-064-067-068-201500-
SOUTH CENTRAL WISCONSIN

CITY           SKY/WX    TMP DP  RH WIND       PRES   REMARKS
REEDSBURG      SUNNY     49  43  78 NW5       29.89S
BARABOO/DELLS  SUNNY     49  41  73 N9        29.89R
LONE ROCK      NOT AVBL
MINERAL POINT  SUNNY     50  43  76 NW7       29.91R
MADISON        MOSUNNY   52  43  71 N12       29.88R
MIDDLETON      SUNNY     52  43  71 NW9       29.88R
WATERTOWN      PTSUNNY   47  46  95 NW8       29.84R
MONROE         SUNNY     50  45  81 NW8G16    29.87R
JANESVILLE     SUNNY     52  46  82 NW12      29.85R
$$

WIZ051-052-058>065-066-070>072-201500-
SOUTHEAST WISCONSIN

CITY           SKY/WX    TMP DP  RH WIND       PRES   REMARKS
MILWAUKEE      MOSUNNY   52  44  74 NW14      29.82R
WAUKESHA       MOSUNNY   46  43  87 NW12      29.83R
MILWAUKEE/TIMM NOT AVBL
RACINE         MOSUNNY   50  43  77 W10       29.83R
BURLINGTON     MOSUNNY   47  44  87 NW15      29.82R
KENOSHA        PTSUNNY   50  44  80 NW10      29.82R
FOND DU LAC    CLOUDY    50  44  80 NW14      29.85R
SHEBOYGAN      PTSUNNY   49  43  80 NW12      29.83R
WEST BEND      MOSUNNY   46  41  81 NW12G17   29.82R
JUNEAU         PTSUNNY   47  44  88 NW9       29.86R
$$

LSZ147-162-201500-
LAKE SUPERIOR

STATION/POSITION TIME  TEMP    WIND        PRES    WAVE
                       AIR SEA DIR/SP/G            HT/PER
                 (UTC) (F)     (DEG/KT/KT) (MB)    (FT/S)
W MID LAKE BUOY  1250   48 46  340/ 10/ 12 1011.7R   1
DEVILS ISLAND    1300   50     320/ 13/ 15 1012.9R
PORT WING        1300   49     300/ 13/ 16 1013.5R
SAXON HARBOR     1300   51     320/  8/  9 1012.2R
$$

LMZ867-665-643>646-201500-
LAKE MICHIGAN

STATION/POSITION TIME  TEMP    WIND        PRES    WAVE
                       AIR SEA DIR/SP/G            HT/PER
                 (UTC) (F)     (DEG/KT/KT) (MB)    (FT/S)
CHAMBERS ISLAND  1300   50     330/  8/ 11 1009.8R
N MID LAKE BUOY  1250   49 52  320/ 14/ 17 1008.6R   3/ 7
NORTHPORT PIER   1300   50     340/ 14/ 17 1009.1R
KEWAUNEE LAKESHO 1300   47     300/  6/  7 1008.3R
SHEBOYGAN LAKESH 1300   49 50  300/ 14/ 17 1009.4R
PORT WASHINGTON  1340   51     300/ 11/ 15 1009.8R
ATWATER BUOY     1300   50     280/ 14/ 16 1010.0R
MILWAUKEE LAKESH 1300   50     310/ 12/ 16   N/A
S MID LAKE BUOY  1250   53 55  260/ 12/ 14 1009.2R   4/ 6
KENOSHA   LAKESH 1300   49     270/ 11/ 15 1008.8R
$$

TC  - TEMPERATURE IN CELSIUS
VSB - VISIBILITY IN STATUTE MILES
WCI - WIND CHILL INDEX
HX  - HEAT INDEX



USA.gov is the U.S. government's official web portal to all federal, state and local government web resources and services.